7 * 24
多渠道服务支持
STARLINK-37038(NORAD编号68226)是美国SpaceX公司星链(Starlink)卫星互联网星座中的一颗第二代低轨通信卫星,隶属于SpaceX打造的全球卫星互联网组网项目。星链星座计划通过部署数万颗低轨卫星,为全球提供高速、低延迟的宽带互联网服务。该卫星运行在近地轨道,主要为用户提供互联网接入服务,补充星座网络覆盖容量,助力实现全球无死角互联网接入,同时星链星座目前也已大规模轨道重构以降低太空碎片风险,提升太空运行安全,STARLINK-37038也参与其中承担通信服务任务。
美国
(US)
| 数据来源 | 国际轨道数据 |
| 星历时间: | 2026-07-27T13:02:30+0800 20小时前 查看轨道信息 |
| 半长轴: | 6843.666km |
| 偏心率: | 0.0002414 |
| 轨道倾角: | 97.284° |
| 近地点辐角 | 95.196° |
| 升交点赤经 | 82.824° |
| 平近点角 | 264.956° |
| 近地点: | 463.876km |
| 远地点: | 467.182km |
| 周期: | 93.906分钟 |
| 每日圈数: | 15.334501 |